Portada
METAR-TAF:

METAR-TAF

Aeroports :

Plataforma petroliera

A12-cpp, Països Baixos

latitud: 55-23-57N, longitud: 3-48-37E, altitud: 33 m

Observació

L'informe es va fer fa 34 minuts, a les 22:25 UTC
Vent 16 kt del Nord, variant entre Nord/Nord-Oest i Nord-Est
Temperatura 13°C
Humitat 82%
Pressió 1005 hPa
Visibilitat 10 km o més

METAR: EHAK 032225Z AUTO 36016KT 340V050 9999 FEW013/// BKN017/// OVC020/// 13/10 Q1005

Hora: 00:59 (22:59 UTC)


TAF: manca

Observacions i pronòstics meteorològics de més de 4000 aeroports (METAR i TAF).

Les estacions disponibles són els punts grocs i vermells al mapa.

Posi el ratolí al punt desitjat per veure el nom de l'estació.

Feu clic per veure les observacions i els pronòstics meteorològics.

Per canviar el mapa: feu clic els botons verds amb una creu de color negre per apropar; al botó verd amb un guió per allunyar la imatge; o en les fletxes verdes per a mapes adjacents.


METAR-TAF: